Flag for U.S.A. Weather past 2 weeks in Naples, Florida, U.S.A.

Now
75 °F

Clear.


Feels Like: 74 °F
Forecast: 76 / 90 °F
Wind: 5 mph from East

Location: Naples Municipal

Current Time: Jul 2, 2015 at 1:38:42 AM

Latest Report: Jul 2, 2015 at 12:53 AM


Visibility: 10 mi

Pressure: 30.11 "Hg

Humidity: 88%

Dew point: 71 °F

Location of NaplesLocation

Historic Weather in Naples — Graph

°F

Naples temperature yesterday

Maximum temperature yesterday: 92 °F (at 12:53 PM)
Minimum temperature yesterday: 75 °F (at 5:53 PM)
Average temperature yesterday: 82 °F

Past Weeks' High & Low Weather Summary

 TemperatureHumidityPressure
High93 °F (Jun 30, 3:53 PM)96% (Jun 24, 1:53 AM)30.16 "Hg (Jun 24, 1:53 AM)
Low74 °F (Jun 23, 6:53 PM)49% (Jul 1, 12:53 PM)30.01 "Hg (Jun 28, 4:53 AM)
Average83 °F75%30.08 "Hg
* Reported Jun 17 6:53 AM — Jul 2 12:53 AM, Naples, Weather by CustomWeather, © 2015

Note: Actual official high and low records may vary slightly from our data, if they occured in-between our weather recording intervals... More about our weather records

Advertising

Naples weather history for previous 24 hours

 ConditionsComfort  
Time TempWeatherWind HumidityBarometerVisibility
12:53 AM
Thu, Jul 2
75 °FClear.5 mph88%30.11 "Hg10 mi
11:53 PM
Wed, Jul 1
75 °FClear.6 mph88%30.12 "Hg10 mi
10:53 PM76 °FClear.3 mph88%30.12 "Hg10 mi
9:53 PM76 °FClear.7 mph88%30.11 "Hg10 mi
8:53 PM76 °FSunny.No wind85%30.08 "Hg10 mi
7:53 PM76 °FLight rain. Broken clouds.3 mph91%30.11 "Hg8 mi
6:53 PM77 °FThunderstorms. Partly sunny.8 mph79%30.13 "Hg6 mi
5:53 PM75 °FThunderstorms. Partly sunny.17 mph79%30.09 "Hg7 mi
4:53 PM89 °FPassing clouds.5 mph57%30.09 "Hg9 mi
3:53 PM89 °FThundershowers. Sunny.8 mph59%30.08 "Hg9 mi
2:53 PM89 °FScattered clouds.12 mph63%30.09 "Hg9 mi
1:53 PM91 °FPassing clouds.10 mph60%30.11 "Hg9 mi
12:53 PM92 °FPartly sunny.6 mph49%30.13 "Hg9 mi
11:53 AM90 °FSunny.6 mph56%30.13 "Hg9 mi
10:53 AM88 °FSunny.No wind61%30.14 "Hg9 mi
8:53 AM81 °FSunny.8 mph67%30.14 "Hg10 mi
7:53 AM78 °FSunny.7 mph74%30.16 "Hg9 mi
6:53 AM79 °FClear.6 mph77%30.12 "Hg9 mi
5:53 AM79 °FClear.5 mph77%30.10 "Hg10 mi
4:53 AM79 °FClear.7 mph77%30.09 "Hg10 mi
3:53 AM79 °FClear.8 mph77%30.09 "Hg10 mi
2:53 AM80 °FClear.12 mph79%30.10 "Hg10 mi
1:53 AM81 °FClear.5 mph79%30.13 "Hg10 mi
Weather by CustomWeather, © 2015

See weather overviewHow to use our weather pages